Lynchburg, VA

12:35 AM EDT on October 21, 2017 (GMT -0400)
Lynchburg Regional-Glenn

Weather History for KLYH - August, 2014

Change the Weather History Date:

Friday, August 15, 2014

  Actual Average Record
Temperature  
Mean Temperature 69 °F 74 °F  
Max Temperature 80 °F 86 °F 98 °F (1988)
Min Temperature 57 °F 63 °F 52 °F (2013)
Degree Days  
Heating Degree Days 0 0  
Month to date heating degree days 0 0  
Since 1 June heating degree days 1 15  
Since 1 July heating degree days 0 1  
Cooling Degree Days 4 9  
Month to date cooling degree days 77 149  
Year to date cooling degree days 736 763  
Since 1 June cooling degree days 622 681  
Growing Degree Days 18 (Base 50)    
Moisture  
Dew Point 62 °F    
Average Humidity 76    
Maximum Humidity 100    
Minimum Humidity 52    
Precipitation  
Precipitation 0.00 in 0.09 in 1.51 in (1940)
Month to date precipitation 3.45 1.59  
Year to date precipitation 32.66 26.26  
Snow  
Snow 0.00 in - - ()
Month to date snowfall 0.0  
Since 1 June snowfall 0.0  
Since 1 July snowfall 0.0  
Snow Depth 0.00 in    
Sea Level Pressure  
Sea Level Pressure 30.00 in    
Wind  
Wind Speed 3 mph (SSW)    
Max Wind Speed 12 mph    
Max Gust Speed 16 mph    
Visibility 9 miles    
Events      
T = Trace of Precipitation, MM = Missing Value Source: NWS Daily Summary

Daily Weather History Graph

Daily Weather History Graph

Search for Another Location

Airport or City:

Trip Planner

Search our weather history database for the weather conditions in past years. The results will help you decide how hot, cold, wet, or windy it might be!

Date:

Astronomy

Aug. 15, 2014 Rise Set
Actual Time 6:33 AM EDT 8:08 PM EDT
Civil Twilight 6:05 AM EDT 8:36 PM EDT
Nautical Twilight 5:31 AM EDT 9:09 PM EDT
Astronomical Twilight 4:56 AM EDT 9:45 PM EDT
Moon 11:18 PM EDT (8/15) 12:05 PM EDT (8/15)
Length of Visible Light 14h 31m
Length of Day
13h 35m
Waning Gibbous, 69% of the Moon is Illuminated
Aug 15
Waning Gibbous
Aug 17
Last Quarter
Aug 25
New
Sep 2
First Quarter
Sep 8
Full

Hourly Weather History & Observations

Time (EDT) Temp. Dew Point Humidity Pressure Visibility Wind Dir Wind Speed Gust Speed Precip Events Conditions
12:54 AM 66.0 °F 63.0 °F 90% 29.99 in 10.0 mi Calm Calm - N/A   Mostly Cloudy
1:54 AM 64.9 °F 61.0 °F 87% 29.99 in 10.0 mi Calm Calm - N/A   Partly Cloudy
2:54 AM 60.1 °F 60.1 °F 100% 29.99 in 7.0 mi Calm Calm - N/A   Clear
3:54 AM 64.0 °F 61.0 °F 90% 29.99 in 10.0 mi NW 3.5 mph - N/A   Mostly Cloudy
4:54 AM 60.1 °F 59.0 °F 96% 29.99 in 6.0 mi Calm Calm - N/A   Partly Cloudy
5:54 AM 59.0 °F 59.0 °F 100% 29.99 in 5.0 mi Calm Calm - N/A   Clear
6:54 AM 57.9 °F 57.9 °F 100% 30.01 in 5.0 mi Calm Calm - N/A   Clear
7:54 AM 64.0 °F 61.0 °F 90% 30.02 in 8.0 mi Calm Calm - N/A   Clear
8:54 AM 68.0 °F 61.0 °F 78% 30.04 in 10.0 mi South 3.5 mph - N/A   Clear
9:54 AM 72.0 °F 60.1 °F 66% 30.05 in 10.0 mi SSW 4.6 mph - N/A   Clear
10:54 AM 75.0 °F 59.0 °F 57% 30.05 in 10.0 mi Variable 3.5 mph - N/A   Clear
11:54 AM 75.9 °F 60.1 °F 58% 30.04 in 10.0 mi South 5.8 mph - N/A   Mostly Cloudy
12:54 PM 79.0 °F 60.1 °F 52% 30.02 in 10.0 mi Variable 3.5 mph - N/A   Scattered Clouds
1:54 PM 79.0 °F 59.0 °F 50% 30.00 in 10.0 mi Variable 3.5 mph - N/A   Mostly Cloudy
2:54 PM 79.0 °F 60.1 °F 52% 29.99 in 10.0 mi Variable 3.5 mph - N/A   Mostly Cloudy
3:54 PM 79.0 °F 61.0 °F 54% 29.97 in 10.0 mi SSW 5.8 mph - N/A   Clear
4:54 PM 79.0 °F 63.0 °F 58% 29.96 in 10.0 mi South 5.8 mph - N/A   Clear
5:54 PM 79.0 °F 63.0 °F 58% 29.96 in 10.0 mi South 6.9 mph - N/A   Clear
6:54 PM 77.0 °F 64.9 °F 66% 29.96 in 10.0 mi South 8.1 mph - N/A   Clear
7:54 PM 72.0 °F 66.0 °F 81% 29.98 in 10.0 mi South 4.6 mph - N/A   Clear
8:54 PM 69.1 °F 64.9 °F 87% 29.98 in 10.0 mi Calm Calm - N/A   Clear
9:54 PM 66.9 °F 64.9 °F 93% 29.99 in 10.0 mi Calm Calm - N/A   Clear
10:54 PM 66.0 °F 64.0 °F 93% 30.00 in 10.0 mi Calm Calm - N/A   Clear
11:54 PM 64.0 °F 64.0 °F 100% 30.00 in 9.0 mi Calm Calm - N/A   Clear